Spokane, WA
on Sunday, November 11, 2012

Sunday
Previous Day Next Day
Daily Summary
 ActualAverageRecord
Temperature
Mean Temperature °F 37°F  
Max Temperature 32°F 44°F 62°F (1990)
Min Temperature 20°F 31°F -2°F (2000)
Degree Days
Heating Degree Days 39 28  
Month to date heating degree days 261 283  
Since 1 July heating degree days 867 1071  
Cooling Degree Days 0 0  
Month to date cooling degree days 0 0  
Year to date cooling degree days 535 450  
Moisture
Dew Point 25°F   
Average Humidity 85    
Maximum Humidity 92    
Minimum Humidity 78    
Precipitation
Precipitation T in 0.07 in 0.89 in (1968)
Month to date precipitation 0.72 0.76  
Year to date precipitation 16.22 12.72  
Snow
Snow T in 0.10 in 3.60 in (1992)
Month to date snowfall 2.9 1.2  
Since 1 July snowfall 2.9 1.3  
Since 1 September snowfall 2.9 1.3  
Snow Depth 1.00 in   
Wind
Wind Speed 4 mph   
Max Wind Speed 10 mph   
Max Gust Speed 41 mph   
Visibility 8 miles   
Events Fog , Snow   

Key: T is trace of precipitation, MM is missing value
Source: NWS Daily Summary
Time(PST)TemperatureDew PointHumidity Pressure Visibility Wind DirectionWind SpeedGust SpeedPrecipitationEvents Conditions
12:53 AM 23.0°F 19.0°F 85% 30.24 in 10.0 miles South 4.6 mph - N/A   Partly Cloudy
1:53 AM 21.9°F 19.9°F 92% 30.25 in 10.0 miles South 5.8 mph - N/A   Partly Cloudy
2:53 AM 21.9°F 19.9°F 92% 30.25 in 10.0 miles South 5.8 mph - N/A   Partly Cloudy
3:53 AM 21.0°F 19.9°F 96% 30.27 in 0.8 miles South 10.4 mph - N/A   Overcast
4:53 AM 24.1°F 23.0°F 96% 30.29 in 0.2 miles South 5.8 mph - 0.00 in Fog , Snow Light Snow
5:29 AM 24.8°F 24.8°F 100% 30.20 in 0.2 miles SSW 5.8 mph - 0.00 in   Overcast
5:56 AM 26.6°F 24.8°F 93% 30.21 in 2.0 miles Calm Calm - N/A   Overcast
6:17 AM 26.6°F 24.8°F 93% 30.21 in 4.0 miles SSE 4.6 mph - N/A   Overcast
6:53 AM 26.1°F 24.1°F 92% 30.30 in 5.0 miles South 3.5 mph - N/A   Overcast
7:21 AM 26.6°F 24.8°F 93% 30.22 in 8.0 miles SE 4.6 mph - N/A   Overcast
7:53 AM 26.1°F 24.1°F 92% 30.31 in 7.0 miles SSE 5.8 mph - N/A   Overcast
8:47 AM 26.6°F 24.8°F 93% 30.24 in 9.0 miles SSE 4.6 mph - N/A   Overcast
8:53 AM 26.1°F 24.1°F 92% 30.33 in 8.0 miles South 3.5 mph - N/A   Overcast
9:53 AM 27.0°F 24.1°F 89% 30.35 in 10.0 miles SSE 5.8 mph - N/A   Overcast
10:30 AM 28.4°F 24.8°F 86% 30.26 in 9.0 miles SSE 5.8 mph - N/A   Overcast
10:53 AM 28.9°F 25.0°F 85% 30.35 in 10.0 miles SSE 4.6 mph - N/A   Overcast
11:53 AM 30.0°F 26.1°F 85% 30.33 in 10.0 miles SE 5.8 mph - N/A   Overcast
12:53 PM 30.9°F 26.1°F 82% 30.34 in 10.0 miles SSE 5.8 mph - N/A   Overcast
1:53 PM 32.0°F 27.0°F 82% 30.34 in 10.0 miles SE 5.8 mph - N/A   Overcast
2:53 PM 32.0°F 27.0°F 82% 30.35 in 10.0 miles SE 6.9 mph - N/A   Mostly Cloudy
3:53 PM 32.0°F 27.0°F 82% 30.36 in 10.0 miles East 3.5 mph - N/A   Overcast
4:53 PM 30.2°F 26.6°F 86% 30.27 in 10.0 miles ESE 4.6 mph - N/A   Overcast
5:06 PM 30.2°F 26.6°F 86% 30.27 in 10.0 miles ESE 4.6 mph - N/A   Overcast
5:53 PM 30.9°F 27.0°F 85% 30.36 in 10.0 miles East 3.5 mph - N/A   Overcast
6:53 PM 30.9°F 27.0°F 85% 30.35 in 10.0 miles Calm Calm - N/A   Overcast
7:53 PM 32.0°F 27.0°F 82% 30.34 in 10.0 miles East 3.5 mph - N/A   Overcast
8:53 PM 32.0°F 27.0°F 82% 30.34 in 10.0 miles East 3.5 mph - N/A   Overcast
9:53 PM 30.9°F 28.0°F 89% 30.34 in 7.0 miles Calm Calm - N/A   Overcast
10:53 PM 32.0°F 28.0°F 85% 30.32 in 10.0 miles Calm Calm - N/A   Overcast
11:53 PM 30.0°F 28.0°F 92% 30.33 in 10.0 miles North 3.5 mph - N/A   Overcast
Moon Phase
Nov. 11 Nov. 13 Nov. 20 Nov. 28 Dec. 06
Sunrise:06:50 AM (PST) Moon Rise:04:01 AM (PST)11/11
Sunset:04:17 PM (PST) Moon Set:02:50 PM (PST)11/11

Copyright © 2014 The Weather Underground, Inc.